This demonstration page uses our WeatherBlox Daily Observations layout. Learn more.

Left ArrowRight Arrow

Hourly Observations for October 2, 2021

Temp ( °F °C ) Dew Point ( °F °C ) Humidity (%) Winds ( mph kmh ) Pressure ( in mb ) Visibility ( mi km ) Precip ( " mm )
12:15 am 00:15 Clear 54 12 52 11 94 94 Calm 30.26 1025 10 16 0.00 0.00
12:35 am 00:35 Clear 54 12 52 11 94 94 Calm 30.26 1025 10 16 0.00 0.00
12:55 am 00:55 Clear 54 12 54 12 100 100 Calm 30.26 1025 10 16 0.00 0.00
1:15 am 01:15 Clear 54 12 52 11 94 94 Calm 30.25 1024 10 16 0.00 0.00
1:35 am 01:35 Clear 52 11 52 11 100 100 Calm 30.26 1025 10 16 0.00 0.00
1:55 am 01:55 Clear 52 11 52 11 100 100 Calm 30.26 1025 10 16 0.00 0.00
2:15 am 02:15 Clear 52 11 52 11 100 100 Calm 30.25 1025 10 16 0.00 0.00
2:35 am 02:35 Clear 52 11 52 11 100 100 Calm 30.24 1024 10 16 0.00 0.00
2:55 am 02:55 Clear 52 11 52 11 100 100 Calm 30.24 1024 10 16 0.00 0.00
3:15 am 03:15 Clear 52 11 52 11 100 100 Calm 30.24 1024 10 16 0.00 0.00
3:35 am 03:35 Clear 50 10 50 10 100 100 Calm 30.25 1024 10 16 0.00 0.00
3:55 am 03:55 Clear 50 10 50 10 100 100 Calm 30.25 1024 10 16 0.00 0.00
4:15 am 04:15 Clear 50 10 50 10 100 100 Calm 30.24 1024 10 16 0.00 0.00
4:35 am 04:35 Clear 50 10 50 10 100 100 Calm 30.24 1024 10 16 0.00 0.00
4:55 am 04:55 Clear 50 10 50 10 100 100 Calm 30.25 1024 10 16 0.00 0.00
5:15 am 05:15 Clear 50 10 50 10 100 100 Calm 30.25 1024 10 16 0.00 0.00
5:35 am 05:35 Clear 50 10 50 10 100 100 Calm 30.25 1024 10 16 0.00 0.00
5:55 am 05:55 Clear 48 9 48 9 100 100 Calm 30.25 1024 10 16 0.00 0.00
6:15 am 06:15 Clear 48 9 48 9 100 100 NNW 3 6 30.25 1024 10 16 0.00 0.00
6:35 am 06:35 Clear 50 10 50 10 100 100 Calm 30.25 1024 10 16 0.00 0.00
6:55 am 06:55 Clear 48 9 48 9 100 100 Calm 30.25 1024 10 16 0.00 0.00
7:15 am 07:15 Partly Cloudy 48 9 48 9 100 100 Calm 30.25 1024 10 16 0.00 0.00
7:35 am 07:35 Mostly Cloudy with Mist and Fog 48 9 48 9 100 100 Calm 30.25 1024 5 8 0.00 0.00
7:55 am 07:55 Partly Cloudy 50 10 50 10 100 100 Calm 30.26 1025 10 16 0.00 0.00
8:15 am 08:15 Sunny 52 11 52 11 100 100 Calm 30.25 1025 10 16 0.00 0.00
8:35 am 08:35 Sunny 52 11 52 11 100 100 Calm 30.24 1024 10 16 0.00 0.00
8:55 am 08:55 Sunny 54 12 54 12 100 100 Calm 30.24 1024 10 16 0.00 0.00
9:15 am 09:15 Sunny 55 13 54 12 94 94 Calm 30.23 1024 10 16 0.00 0.00
9:35 am 09:35 Sunny 57 14 55 13 94 94 Calm 30.23 1024 10 16 0.00 0.00
9:55 am 09:55 Sunny 61 16 55 13 83 83 Calm 30.23 1024 10 16 0.00 0.00
10:15 am 10:15 Sunny 61 16 57 14 88 88 Calm 30.23 1024 10 16 0.00 0.00
10:35 am 10:35 Sunny 63 17 57 14 83 83 Calm 30.22 1023 10 16 0.00 0.00
10:55 am 10:55 Sunny 64 18 59 15 83 83 Calm 30.20 1023 10 16 0.00 0.00
11:15 am 11:15 Sunny 66 19 59 15 78 78 Calm 30.20 1023 10 16 0.00 0.00
11:35 am 11:35 Sunny 68 20 59 15 73 73 Calm 30.20 1023 10 16 0.00 0.00
11:55 am 11:55 Sunny 70 21 59 15 69 69 Calm 30.20 1023 10 16 0.00 0.00
12:15 pm 12:15 Sunny 72 22 61 16 69 69 Calm 30.19 1022 10 16 0.00 0.00
12:35 pm 12:35 Sunny 72 22 61 16 69 69 Calm 30.18 1022 10 16 0.00 0.00
12:55 pm 12:55 Sunny 73 23 61 16 65 65 Calm 30.16 1021 10 16 0.00 0.00
1:15 pm 13:15 Sunny 75 24 61 16 61 61 Calm 30.15 1021 10 16 0.00 0.00
1:35 pm 13:35 Sunny 73 23 61 16 65 65 N 3 6 30.14 1021 10 16 0.00 0.00
1:55 pm 13:55 Sunny 77 25 61 16 57 57 Calm 30.13 1020 10 16 0.00 0.00
2:15 pm 14:15 Sunny 77 25 61 16 57 57 Calm 30.12 1020 10 16 0.00 0.00
2:35 pm 14:35 Sunny 77 25 59 15 54 54 Calm 30.12 1020 10 16 0.00 0.00
2:55 pm 14:55 Sunny 79 26 59 15 51 51 SW 5 7 30.11 1020 10 16 0.00 0.00
3:15 pm 15:15 Sunny 79 26 59 15 51 51 Calm 30.10 1019 10 16 0.00 0.00
3:35 pm 15:35 Sunny 79 26 61 16 54 54 W 7 11 30.10 1019 10 16 0.00 0.00
3:55 pm 15:55 Sunny 79 26 61 16 54 54 Calm 30.09 1019 10 16 0.00 0.00
4:15 pm 16:15 Sunny 79 26 61 16 54 54 W 3 6 30.09 1019 10 16 0.00 0.00
4:35 pm 16:35 Sunny 79 26 61 16 54 54 W 3 6 30.09 1019 10 16 0.00 0.00
4:55 pm 16:55 Sunny 79 26 61 16 54 54 SW 3 6 30.09 1019 10 16 0.00 0.00
5:15 pm 17:15 Sunny 77 25 63 17 61 61 Calm 30.09 1019 10 16 0.00 0.00
5:35 pm 17:35 Sunny 77 25 63 17 61 61 Calm 30.08 1019 10 16 0.00 0.00
5:55 pm 17:55 Sunny 77 25 63 17 61 61 Calm 30.08 1019 10 16 0.00 0.00
6:15 pm 18:15 Sunny 77 25 61 16 57 57 Calm 30.08 1019 10 16 0.00 0.00
6:35 pm 18:35 Sunny 75 24 63 17 65 65 Calm 30.09 1019 10 16 0.00 0.00
6:55 pm 18:55 Clear 72 22 63 17 73 73 Calm 30.09 1019 10 16 0.00 0.00
7:15 pm 19:15 Clear 70 21 63 17 78 78 Calm 30.09 1019 10 16 0.00 0.00
7:35 pm 19:35 Clear 68 20 64 18 88 88 Calm 30.09 1019 10 16 0.00 0.00
7:55 pm 19:55 Clear 68 20 64 18 88 88 Calm 30.09 1019 10 16 0.00 0.00
8:15 pm 20:15 Clear 68 20 64 18 88 88 Calm 30.09 1019 10 16 0.00 0.00
8:35 pm 20:35 Clear 66 19 64 18 94 94 Calm 30.09 1019 10 16 0.00 0.00
8:55 pm 20:55 Clear 66 19 64 18 94 94 Calm 30.10 1019 10 16 0.00 0.00
9:15 pm 21:15 Clear 64 18 63 17 94 94 Calm 30.09 1019 10 16 0.00 0.00
9:35 pm 21:35 Clear 63 17 63 17 100 100 Calm 30.10 1019 10 16 0.00 0.00
9:55 pm 21:55 Clear 63 17 63 17 100 100 Calm 30.10 1019 10 16 0.00 0.00
10:15 pm 22:15 Clear 63 17 63 17 100 100 Calm 30.10 1019 10 16 0.00 0.00
10:35 pm 22:35 Clear 63 17 61 16 94 94 Calm 30.10 1019 10 16 0.00 0.00
10:55 pm 22:55 Clear 63 17 61 16 94 94 Calm 30.10 1019 10 16 0.00 0.00
11:15 pm 23:15 Clear 63 17 61 16 94 94 Calm 30.10 1019 10 16 0.00 0.00
11:35 pm 23:35 Clear 61 16 61 16 100 100 Calm 30.10 1019 10 16 0.00 0.00
11:55 pm 23:55 Clear 61 16 61 16 100 100 Calm 30.09 1019 10 16 0.00 0.00

Powered by AerisWeather